[[{"header":{"parameterUnit":"m.s-1","parameterCategory":1,"la1":30.2991,"la2":30.254,"lo1":-89.0895,"lo2":-89.0444,"dy":0.0017,"dx":0.0017,"nx":28,"ny":28,"refTime":"2023-09-19T09:00:00:Z","depth":0,"parameterNumber":2,"parameterNumberName":"U-component_of_WINDS"},"data":[0,0,0,0,0,0,0,0,0,0,0,0,0,0,0,0,0,0,0,0,0,0,0,0,0,0,0,0,0,0,0,0,0,0,0,0,0,0,0,0,0,0,0,0,0,0,0,0,0,0,0,0,0,0,0,0,0,0,-0.5703,-0.5706,0,-0.5972,-0.5975,-0.5978,-0.6213,-0.6216,-0.6218,-0.6221,-0.6493,-0.6497,-0.6502,0,0,0,0,0,0,0,0,0,0,0,0,0,-0.5391,-0.5396,-0.5703,-0.5706,-0.5709,-0.5972,-0.5975,-0.5979,-0.6213,-0.6216,-0.6219,-0.6222,-0.6491,-0.6497,-0.6503,0,0,0,0,0,0,0,0,0,0,0,0,0,-0.558,-0.5397,-0.5702,-0.5858,-0.5874,-0.5971,-0.5975,-0.598,-0.6212,-0.6216,-0.622,-0.6224,-0.6489,-0.6496,-0.6503,-0.6466,0,0,-0.6525,-0.6528,0,0,0,0,0,0,0,0,-0.5569,-0.5591,-0.5831,-0.5847,-0.5866,-0.6063,-0.5965,-0.6143,-0.6211,-0.6083,-0.6221,-0.6226,-0.6346,-0.6365,-0.6407,-0.6479,-0.6491,-0.6526,-0.653,-0.6533,-0.6535,0,0,0,0,0,0,0,-0.5555,-0.5581,-0.5809,-0.5835,-0.5856,-0.5914,-0.5945,-0.6,-0.6189,-0.6095,-0.6113,-0.6141,-0.6357,-0.6399,-0.6415,-0.6495,-0.6525,-0.6532,-0.6536,-0.6539,-0.6553,-0.655,0,0,0,0,0,0,-0.5518,-0.5568,-0.5801,-0.5817,-0.5724,-0.5916,-0.5951,-0.5996,-0.6189,-0.6222,-0.6138,-0.6151,-0.6385,-0.6407,-0.6425,-0.6396,-0.6533,-0.654,-0.6544,-0.6557,-0.6552,-0.6548,0,0,0,0,0,0,-0.5511,-0.5537,-0.579,-0.5698,-0.5734,-0.5918,-0.5965,-0.5999,-0.6042,-0.6221,-0.6256,-0.6147,-0.6389,-0.6416,-0.6455,-0.6409,-0.6543,-0.6549,-0.6562,-0.6556,-0.655,-0.6335,0,0,0,0,0,0,-0.5501,-0.5533,-0.552,-0.5696,-0.5738,-0.5814,-0.5963,-0.6001,-0.6054,-0.6075,-0.6239,-0.627,-0.6395,-0.6443,-0.6462,-0.6421,-0.6555,-0.6567,-0.6559,-0.6552,-0.6347,-0.6323,-0.6302,0,0,0,0,0,-0.5489,-0.5448,-0.5518,-0.5545,-0.5727,-0.5811,-0.5836,-0.598,-0.6049,-0.6039,-0.6155,-0.6265,-0.6411,-0.6446,-0.6469,-0.6429,-0.657,-0.6561,-0.6553,-0.6357,-0.6328,-0.6302,0,0,0,0,0,0,-0.526,-0.5473,-0.5554,-0.5568,-0.567,-0.5851,-0.5841,-0.5944,-0.6027,-0.6042,-0.6218,-0.6253,-0.6274,-0.6356,-0.639,-0.6405,-0.6506,-0.6501,-0.6349,-0.6323,-0.63,-0.6279,-0.6561,0,0,0,0,0,-0.5211,-0.5262,-0.5447,-0.5441,-0.5489,-0.5655,-0.5698,-0.5801,-0.5913,-0.5957,-0.6075,-0.6179,-0.6249,-0.6291,-0.6365,-0.6362,-0.6401,-0.6346,-0.6323,-0.6304,-0.6297,-0.6303,-0.6281,-0.652,-0.652,-0.652,0,0,-0.511,-0.5234,-0.5255,-0.5398,-0.5489,-0.5538,-0.569,-0.5735,-0.5773,-0.5963,-0.6008,-0.6099,-0.6227,-0.6245,-0.6259,-0.6314,-0.6241,-0.6293,-0.6276,-0.628,-0.6292,-0.6269,-0.6248,-0.6514,-0.6515,-0.6516,0,0,-0.4952,-0.505,-0.5058,-0.5147,-0.5284,-0.5396,-0.5397,-0.5564,-0.5632,-0.568,-0.5825,-0.5873,-0.599,-0.6075,-0.6134,-0.6012,-0.6117,-0.6032,-0.5912,-0.5916,-0.5897,-0.5881,-0.5837,-0.582,-0.6025,-0.6024,-0.6024,0,-0.4809,-0.4889,-0.5048,-0.5085,-0.5145,-0.5322,-0.5331,-0.541,-0.5562,-0.5599,-0.566,-0.5812,-0.591,-0.5952,-0.5922,-0.5964,-0.5972,-0.6012,-0.5887,-0.5873,-0.586,-0.582,-0.5804,-0.6013,-0.6014,-0.6016,-0.6017,0,-0.4707,-0.476,-0.475,-0.4895,-0.4954,-0.4976,-0.5139,-0.518,-0.5279,-0.5385,-0.5433,-0.5558,-0.5662,-0.568,-0.5776,-0.5736,-0.5766,-0.5854,-0.5959,-0.5823,-0.5789,-0.5775,-0.5997,-0.6001,-0.6004,-0.6007,0,0,-0.4407,-0.4643,-0.4637,-0.4706,-0.4872,-0.4916,-0.4948,-0.5051,-0.5082,-0.5183,-0.5214,-0.531,-0.5394,-0.5461,-0.5569,-0.5573,-0.5469,-0.5662,-0.5667,-0.562,-0.5433,-0.5363,-0.5343,-0.5541,-0.5539,-0.5537,-0.5422,0,-0.4275,-0.4342,-0.4488,-0.4509,-0.4561,-0.4733,-0.4761,-0.4866,-0.4966,-0.5026,-0.5138,-0.5203,-0.5309,-0.535,-0.5362,-0.5478,-0.5433,-0.549,-0.5571,-0.5572,-0.5531,-0.5326,-0.5253,-0.5137,-0.5409,-0.5407,-0.5406,0,-0.4128,-0.422,-0.4246,-0.4412,-0.444,-0.4462,-0.457,-0.4624,-0.4747,-0.4821,-0.4897,-0.5017,-0.5061,-0.5159,-0.5222,-0.5257,-0.53,-0.5363,-0.5362,-0.5373,-0.5478,-0.5329,-0.5104,-0.5085,-0.5386,-0.5388,-0.5389,0,-0.3906,-0.4037,-0.4071,-0.4124,-0.4318,-0.433,-0.4411,-0.4539,-0.4593,-0.4687,-0.4724,-0.4821,-0.4874,-0.4947,-0.5091,-0.5149,-0.5138,-0.5248,-0.5199,-0.5195,-0.5186,-0.5184,-0.4962,-0.5216,-0.5217,-0.5217,-0.5217,0,-0.3741,-0.375,-0.3974,-0.3993,-0.401,-0.4179,-0.419,-0.4288,-0.44,-0.4443,-0.4598,-0.4635,-0.4824,-0.4883,-0.4997,-0.5031,-0.5054,-0.5115,-0.5144,-0.51,-0.5091,-0.5128,-0.5139,-0.5213,-0.5213,-0.5214,-0.5215,0,-0.3494,-0.3644,-0.3692,-0.3873,-0.3919,-0.3922,-0.4078,-0.4104,-0.4216,-0.4268,-0.429,-0.4465,-0.4543,-0.4695,-0.4815,-0.4891,-0.49,-0.4954,-0.4858,-0.4876,-0.4819,-0.4821,-0.461,-0.4591,-0.4857,-0.4854,-0.4852,0,-0.3378,-0.339,-0.3573,-0.3613,-0.3689,-0.3751,-0.3808,-0.3976,-0.4028,-0.4171,-0.418,-0.4271,-0.4352,-0.4468,-0.4605,-0.4698,-0.4754,-0.4674,-0.4769,-0.4724,-0.4752,-0.4749,-0.4751,-0.4651,-0.4648,-0.4645,-0.4642,0,-0.3156,-0.3231,-0.3306,-0.3407,-0.3471,-0.3559,-0.3655,-0.3679,-0.3869,-0.392,-0.4003,-0.4065,-0.4189,-0.4277,-0.4391,-0.4476,-0.459,-0.4612,-0.4606,-0.4559,-0.4502,-0.4532,-0.4798,-0.4615,-0.4618,-0.462,-0.4621,-0.4622,-0.2971,-0.299,-0.3122,-0.3202,-0.3292,-0.3379,-0.3414,-0.3531,-0.3603,-0.3717,-0.3813,-0.3887,-0.4014,-0.4179,-0.4256,-0.4317,-0.4372,-0.4363,-0.436,-0.4355,-0.4336,-0.4495,-0.4339,-0.434,-0.4341,-0.4342,-0.4342,0,-0.2757,-0.2851,-0.2923,-0.3053,-0.3116,-0.3221,-0.3334,-0.3379,-0.3443,-0.3552,-0.3629,-0.3725,-0.3812,-0.3958,-0.4057,-0.4078,-0.4133,-0.4098,-0.4097,-0.4115,-0.4282,-0.4277,-0.4052,-0.4052,-0.4052,-0.4052,-0.4052,-0.4052,-0.2652,-0.269,-0.278,-0.2865,-0.2961,-0.3035,-0.3091,-0.3172,-0.3261,-0.336,-0.3434,-0.3529,-0.3654,-0.3764,-0.3849,-0.389,-0.3918,-0.3866,-0.3923,-0.4076,-0.4103,-0.4128,-0.4125,-0.3871,-0.3871,-0.3752,-0.3751,-0.375]},{"header":{"parameterUnit":"m.s-1","parameterCategory":1,"la1":30.2991,"la2":30.254,"lo1":-89.0895,"lo2":-89.0444,"dy":0.0017,"dx":0.0017,"nx":28,"ny":28,"refTime":"2023-09-19T09:00:00:Z","depth":0,"parameterNumber":3,"parameterNumberName":"V-component_of_WINDS"},"data":[0,0,0,0,0,0,0,0,0,0,0,0,0,0,0,0,0,0,0,0,0,0,0,0,0,0,0,0,0,0,0,0,0,0,0,0,0,0,0,0,0,0,0,0,0,0,0,0,0,0,0,0,0,0,0,0,0,0,-0.9288,-0.9288,0,-0.9344,-0.9345,-0.9345,-0.9408,-0.9409,-0.941,-0.9411,-0.947,-0.9471,-0.9471,0,0,0,0,0,0,0,0,0,0,0,0,0,-0.9235,-0.9235,-0.9288,-0.9288,-0.9289,-0.9344,-0.9345,-0.9345,-0.9408,-0.9409,-0.941,-0.9411,-0.947,-0.947,-0.9471,0,0,0,0,0,0,0,0,0,0,0,0,0,-0.9271,-0.9236,-0.9288,-0.9327,-0.9331,-0.9344,-0.9345,-0.9346,-0.9408,-0.9409,-0.9411,-0.9412,-0.9469,-0.947,-0.9471,-0.945,0,0,-0.9475,-0.9475,0,0,0,0,0,0,0,0,-0.9269,-0.9273,-0.932,-0.9324,-0.9329,-0.9371,-0.9348,-0.9381,-0.9408,-0.9379,-0.9411,-0.9413,-0.9436,-0.944,-0.9447,-0.9453,-0.9456,-0.9475,-0.9475,-0.9476,-0.9476,0,0,0,0,0,0,0,-0.9266,-0.9271,-0.931,-0.9321,-0.9326,-0.9342,-0.9349,-0.9354,-0.9399,-0.9381,-0.9386,-0.9392,-0.9438,-0.9446,-0.9449,-0.9456,-0.9475,-0.9476,-0.9476,-0.9477,-0.9446,-0.9445,0,0,0,0,0,0,-0.9258,-0.9268,-0.9308,-0.9312,-0.9302,-0.9342,-0.9349,-0.9356,-0.9399,-0.9407,-0.9391,-0.9395,-0.9444,-0.9448,-0.9451,-0.9428,-0.9476,-0.9477,-0.9477,-0.9448,-0.9446,-0.9445,0,0,0,0,0,0,-0.9256,-0.9261,-0.9306,-0.9291,-0.9298,-0.9341,-0.9348,-0.9356,-0.9364,-0.9406,-0.9414,-0.939,-0.9445,-0.945,-0.945,-0.9431,-0.9477,-0.9478,-0.945,-0.9447,-0.9445,-0.9382,0,0,0,0,0,0,-0.9255,-0.926,-0.9252,-0.9291,-0.9299,-0.9303,-0.9347,-0.9356,-0.9365,-0.9371,-0.9408,-0.9415,-0.9446,-0.9448,-0.9451,-0.9434,-0.9479,-0.9451,-0.9449,-0.9446,-0.9386,-0.9378,-0.9372,0,0,0,0,0,-0.9252,-0.9233,-0.9251,-0.9256,-0.929,-0.9302,-0.9306,-0.9342,-0.9364,-0.9356,-0.9383,-0.9414,-0.9433,-0.9447,-0.9451,-0.9434,-0.9453,-0.9449,-0.9446,-0.939,-0.938,-0.9372,0,0,0,0,0,0,-0.9192,-0.9239,-0.926,-0.9252,-0.9272,-0.9312,-0.9304,-0.9331,-0.9346,-0.9351,-0.9395,-0.9403,-0.9397,-0.9416,-0.9431,-0.9415,-0.9447,-0.9445,-0.9403,-0.9394,-0.9387,-0.9382,-0.948,0,0,0,0,0,-0.9177,-0.9183,-0.9224,-0.9213,-0.9222,-0.9261,-0.9267,-0.9293,-0.9316,-0.9325,-0.9352,-0.9374,-0.9384,-0.9391,-0.9403,-0.939,-0.9398,-0.938,-0.9372,-0.9366,-0.9363,-0.9356,-0.9348,-0.9434,-0.9434,-0.9434,0,0,-0.9148,-0.9174,-0.9175,-0.9201,-0.922,-0.9224,-0.9268,-0.9271,-0.9275,-0.9326,-0.9327,-0.9347,-0.9374,-0.9367,-0.9365,-0.9382,-0.9341,-0.9362,-0.9357,-0.9357,-0.9352,-0.9344,-0.9336,-0.9432,-0.9432,-0.9432,0,0,-0.9096,-0.9117,-0.9109,-0.9127,-0.9154,-0.9181,-0.9179,-0.9214,-0.923,-0.9231,-0.9269,-0.9275,-0.9292,-0.9309,-0.932,-0.9274,-0.9302,-0.9277,-0.9238,-0.923,-0.9224,-0.9218,-0.92,-0.9193,-0.9274,-0.9273,-0.9273,0,-0.9056,-0.9064,-0.9102,-0.9102,-0.9112,-0.9158,-0.9151,-0.9166,-0.9197,-0.9202,-0.9221,-0.9244,-0.9265,-0.9262,-0.925,-0.9258,-0.9257,-0.9272,-0.9221,-0.9216,-0.9211,-0.9194,-0.9188,-0.927,-0.927,-0.9271,-0.9271,0,-0.9012,-0.9017,-0.9008,-0.9035,-0.9044,-0.904,-0.9078,-0.9083,-0.9107,-0.9131,-0.9132,-0.9159,-0.9177,-0.9178,-0.9203,-0.9178,-0.9187,-0.9213,-0.9246,-0.9199,-0.9184,-0.9178,-0.9265,-0.9266,-0.9267,-0.9268,0,0,-0.8924,-0.8971,-0.8967,-0.8979,-0.9012,-0.9017,-0.9015,-0.9032,-0.9034,-0.9054,-0.9053,-0.9066,-0.909,-0.9102,-0.9129,-0.9123,-0.9082,-0.915,-0.9151,-0.9135,-0.9055,-0.9034,-0.9026,-0.9102,-0.9101,-0.91,-0.9052,0,-0.8877,-0.8876,-0.891,-0.8899,-0.8903,-0.8947,-0.8945,-0.8965,-0.8987,-0.8994,-0.902,-0.9028,-0.9059,-0.9066,-0.9062,-0.9088,-0.9067,-0.9092,-0.9101,-0.9101,-0.9091,-0.9019,-0.8997,-0.8951,-0.9047,-0.9046,-0.9045,0,-0.8822,-0.8837,-0.8826,-0.8859,-0.8862,-0.8859,-0.8877,-0.8883,-0.8907,-0.8923,-0.8936,-0.8967,-0.8967,-0.8999,-0.8999,-0.9016,-0.9021,-0.9034,-0.9034,-0.9035,-0.9069,-0.9017,-0.8937,-0.8929,-0.9037,-0.9037,-0.9038,0,-0.8757,-0.8774,-0.877,-0.8779,-0.8817,-0.8814,-0.883,-0.8855,-0.8862,-0.8878,-0.8883,-0.8899,-0.8907,-0.8918,-0.8952,-0.8972,-0.8948,-0.8983,-0.8961,-0.896,-0.8953,-0.8953,-0.8872,-0.8959,-0.8959,-0.8959,-0.8959,0,-0.87,-0.8691,-0.8741,-0.8738,-0.8729,-0.8768,-0.8759,-0.8779,-0.8801,-0.8802,-0.8842,-0.8842,-0.8887,-0.8893,-0.892,-0.8915,-0.8919,-0.8932,-0.8939,-0.8928,-0.8926,-0.8931,-0.8935,-0.8957,-0.8957,-0.8958,-0.8958,0,-0.8625,-0.8658,-0.8656,-0.8691,-0.87,-0.8692,-0.8723,-0.8722,-0.8746,-0.8748,-0.875,-0.8788,-0.8797,-0.8832,-0.885,-0.8867,-0.8854,-0.8868,-0.8845,-0.8849,-0.8825,-0.8826,-0.8744,-0.8734,-0.8828,-0.8827,-0.8826,0,-0.8586,-0.8581,-0.8615,-0.8619,-0.8633,-0.8638,-0.8646,-0.8684,-0.869,-0.8716,-0.8711,-0.8723,-0.8734,-0.8746,-0.8775,-0.8788,-0.8802,-0.8773,-0.8805,-0.8793,-0.88,-0.88,-0.8799,-0.8765,-0.8764,-0.8763,-0.8762,0,-0.8513,-0.8529,-0.8539,-0.8552,-0.856,-0.8573,-0.8589,-0.859,-0.8632,-0.8637,-0.8646,-0.8654,-0.8671,-0.8682,-0.87,-0.8717,-0.8746,-0.8752,-0.8747,-0.8735,-0.8722,-0.8727,-0.8825,-0.8753,-0.8754,-0.8755,-0.8755,-0.8756,-0.8455,-0.8451,-0.8474,-0.8483,-0.8498,-0.8511,-0.8511,-0.8535,-0.8543,-0.8559,-0.8582,-0.8587,-0.861,-0.8637,-0.8651,-0.8656,-0.8672,-0.8666,-0.8664,-0.8662,-0.8656,-0.8721,-0.8659,-0.866,-0.866,-0.866,-0.8661,0,-0.8383,-0.84,-0.8407,-0.8427,-0.8433,-0.846,-0.8478,-0.8481,-0.8485,-0.8504,-0.8514,-0.8523,-0.8534,-0.8563,-0.8576,-0.8574,-0.8588,-0.8576,-0.8576,-0.8579,-0.8641,-0.8643,-0.8565,-0.8565,-0.8565,-0.8565,-0.8565,-0.8565,-0.8346,-0.834,-0.8359,-0.8361,-0.8379,-0.8384,-0.8392,-0.8404,-0.8419,-0.8427,-0.8435,-0.8455,-0.8477,-0.8492,-0.8503,-0.8511,-0.8514,-0.8497,-0.851,-0.8566,-0.8575,-0.8584,-0.8586,-0.8498,-0.8498,-0.8448,-0.8448,-0.8447]}]]